Tracking 19476 objects as of 17-Jan-2019
HD Live streaming from Space Station
objects crossing your sky now

FLOCK 3P 70

Track FLOCK 3P 70 now!
10-day predictions
FLOCK 3P 70 is classified as:


NORAD ID: 41980
Int'l Code: 2017-008AJ
Perigee: 493.1 km
Apogee: 502.8 km
Inclination: 97.4 °
Period: 94.4 minutes
Semi major axis: 6868 km
RCS: Unknown
Launch date: February 15, 2017
Source: United States (US)
Launch site: SRIHARIKOTA (SRI)
aabbcc
Your satellite tracking list
Your tracking list is empty




NASA's NSSDC Master Catalog

Two Line Element Set (TLE):
1 41980U 17008AJ  19016.76215886  .00000879  00000-0  38142-4 0  9994
2 41980  97.4291  85.4228 0007049 333.8139  26.2741 15.24983621106487
Source of the keplerian elements: AFSPC